Location: Arran
(51.9410°N, 101.7372°W)
Time: 22:42:37
(UTC+00:00)

BlueWalker 3 - Pass Details

Date: 27 November 2022
Orbit: 498 x 517 km, 53.2° (Epoch: 08 February)

Event Time Altitude Azimuth Distance (km) Brightness Sun altitude
Rises 01:39:50 0° 257° (WSW) 2,625 6.8 -26.4°
Reaches altitude 10° 01:42:02 10° 258° (WSW) 1,735 5.6 -26.8°
Enters shadow 01:44:34 38° 261° (W) 790 3.3 -27.2°
